| time (UTC) | temp F | wind direction | speed knots | gust knots | rain 1hr in | rain 24hr in | rain mn in | humidity % | barometer mb |
| 20260505193011 | 61 | 252 | 13.0 | 21.7 | 0.00 | 0.05 | 0.04 | 69 | 1009.0 |
| 20260505191554 | 61 | 225 | 9.6 | 18.2 | 0.00 | 0.05 | 0.04 | 69 | 1008.8 |
| 20260505190054 | 61 | 237 | 11.3 | 17.4 | 0.00 | 0.05 | 0.04 | 69 | 1008.9 |
| 20260505184535 | 61 | 259 | 13.0 | 20.9 | 0.00 | 0.05 | 0.04 | 69 | 1008.7 |
| 20260505183039 | 62 | 244 | 9.6 | 20.9 | 0.00 | 0.05 | 0.04 | 69 | 1008.5 |
| 20260505181517 | 61 | 242 | 10.4 | 19.1 | 0.00 | 0.05 | 0.04 | 68 | 1008.5 |
| 20260505180016 | 60 | 238 | 7.8 | 20.0 | 0.01 | 0.05 | 0.04 | 68 | 1008.5 |
| 20260505174603 | 59 | 240 | 7.0 | 22.6 | 0.02 | 0.05 | 0.04 | 68 | 1008.9 |
| 20260505173058 | 59 | 246 | 10.4 | 20.9 | 0.02 | 0.05 | 0.04 | 67 | 1008.6 |
| 20260505171540 | 58 | 272 | 7.8 | 20.9 | 0.02 | 0.05 | 0.04 | 69 | 1008.3 |
| 20260505170034 | 60 | 231 | 13.9 | 26.9 | 0.01 | 0.04 | 0.03 | 71 | 1008.8 |
| 20260505164513 | 62 | 289 | 12.2 | 22.6 | 0.00 | 0.03 | 0.02 | 70 | 1008.3 |
| 20260505163012 | 64 | 254 | 5.2 | 10.4 | 0.00 | 0.03 | 0.02 | 70 | 1007.7 |
| 20260505161612 | 63 | 208 | 6.1 | 14.8 | 0.00 | 0.03 | 0.02 | 71 | 1007.5 |
| 20260505153035 | 65 | 233 | 13.0 | 20.9 | 0.00 | 0.03 | 0.02 | 66 | 1007.8 |
| 20260505151517 | 66 | 241 | 12.2 | 26.9 | 0.00 | 0.03 | 0.02 | 64 | 1007.7 |
| 20260505130109 | 62 | 225 | 9.6 | 16.5 | 0.01 | 0.02 | 0.01 | 69 | 1007.2 |
| 20260505124541 | 64 | 232 | 7.8 | 15.6 | 0.00 | 0.01 | 0.00 | 65 | 1007.1 |
| 20260505123043 | 64 | 219 | 10.4 | 26.1 | 0.00 | 0.01 | 0.00 | 64 | 1007.1 |
| 20260505121534 | 63 | 260 | 8.7 | 23.5 | 0.00 | 0.01 | 0.00 | 67 | 1007.1 |
| 20260505120031 | 62 | 180 | 7.0 | 16.5 | 0.00 | 0.01 | 0.00 | 69 | 1007.2 |
| 20260505114530 | 61 | 194 | 7.0 | 17.4 | 0.00 | 0.01 | 0.00 | 69 | 1007.1 |
| 20260505113028 | 61 | 192 | 7.0 | 17.4 | 0.00 | 0.01 | 0.00 | 69 | 1007.0 |
| 20260505111535 | 61 | 218 | 7.8 | 16.5 | 0.00 | 0.01 | 0.00 | 69 | 1007.0 |
| 20260505101547 | 58 | 167 | 3.5 | 9.6 | 0.01 | 0.01 | 0.01 | 70 | 1006.6 |
| 20260505100048 | 59 | 165 | 4.3 | 10.4 | 0.01 | 0.01 | 0.01 | 71 | 1006.9 |
| 20260505094529 | 60 | 195 | 5.2 | 11.3 | 0.00 | 0.00 | 0.00 | 71 | 1006.8 |
| 20260505093027 | 59 | 184 | 5.2 | 13.9 | 0.00 | 0.00 | 0.00 | 71 | 1007.1 |
| 20260505091509 | 59 | 236 | 5.2 | 12.2 | 0.00 | 0.00 | 0.00 | 70 | 1007.5 |
| 20260505090009 | 60 | 183 | 6.1 | 13.9 | 0.00 | 0.00 | 0.00 | 70 | 1007.1 |
| 20260505084551 | 60 | 215 | 6.1 | 14.8 | 0.00 | 0.00 | 0.00 | 68 | 1007.2 |
| 20260505083050 | 61 | 164 | 5.2 | 15.6 | 0.00 | 0.00 | 0.00 | 67 | 1007.4 |
| 20260505081542 | 61 | 212 | 5.2 | 15.6 | 0.00 | 0.00 | 0.00 | 65 | 1007.5 |
| 20260505080036 | 61 | 215 | 7.8 | 15.6 | 0.00 | 0.00 | 0.00 | 63 | 1007.6 |
| 20260505074513 | 61 | 224 | 5.2 | 12.2 | 0.00 | 0.00 | 0.00 | 62 | 1007.6 |
| 20260505073013 | 61 | 190 | 6.1 | 13.9 | 0.00 | 0.00 | 0.00 | 60 | 1007.6 |
| 20260505071607 | 61 | 215 | 7.0 | 20.0 | 0.00 | 0.00 | 0.00 | 59 | 1007.5 |
| 20260505070105 | 61 | 205 | 7.0 | 18.2 | 0.00 | 0.00 | 0.00 | 58 | 1007.4 |
| 20260505064538 | 61 | 191 | 7.0 | 13.9 | 0.00 | 0.00 | 0.00 | 57 | 1007.2 |
| 20260505063036 | 61 | 224 | 6.1 | 10.4 | 0.00 | 0.00 | 0.00 | 57 | 1007.2 |
| 20260505061517 | 61 | 187 | 5.2 | 11.3 | 0.00 | 0.00 | 0.00 | 56 | 1007.3 |
| 20260505060016 | 61 | 202 | 5.2 | 11.3 | 0.00 | 0.00 | 0.00 | 54 | 1007.5 |
| 20260505054558 | 62 | 213 | 6.1 | 13.0 | 0.00 | 0.00 | 0.00 | 53 | 1007.7 |
| 20260505053104 | 62 | 169 | 8.7 | 18.2 | 0.00 | 0.00 | 0.00 | 52 | 1007.8 |
| 20260505051542 | 62 | 187 | 5.2 | 13.0 | 0.00 | 0.00 | 0.00 | 51 | 1007.7 |
| 20260505041504 | 61 | 203 | 4.3 | 11.3 | 0.00 | 0.03 | 0.00 | 50 | 1008.0 |
| 20260505040003 | 61 | 198 | 3.5 | 8.7 | 0.00 | 0.04 | 0.00 | 51 | 1008.0 |
| 20260505034543 | 59 | 220 | 4.3 | 10.4 | 0.00 | 0.04 | 0.00 | 53 | 1007.9 |
| 20260505033046 | 59 | 235 | 0.0 | 0.0 | 0.00 | 0.04 | 0.00 | 53 | 1008.0 |
| 20260505031522 | 59 | 237 | 0.0 | 0.0 | 0.00 | 0.04 | 0.00 | 54 | 1008.1 |
| 20260505030026 | 59 | 239 | 0.0 | 0.0 | 0.00 | 0.07 | 0.00 | 55 | 1008.4 |
| 20260505024502 | 60 | 240 | 0.0 | 0.0 | 0.00 | 0.07 | 0.00 | 54 | 1008.7 |
| 20260505023002 | 60 | 241 | 0.0 | 6.1 | 0.00 | 0.07 | 0.00 | 53 | 1008.8 |
| 20260505021545 | 60 | 229 | 0.0 | 2.6 | 0.00 | 0.07 | 0.00 | 55 | 1008.9 |
| 20260505020044 | 60 | 221 | 0.0 | 3.5 | 0.00 | 0.12 | 0.00 | 54 | 1008.9 |
| 20260505014526 | 62 | 167 | 1.7 | 4.3 | 0.00 | 0.12 | 0.00 | 51 | 1008.9 |
| 20260505013026 | 62 | 154 | 1.7 | 5.2 | 0.00 | 0.12 | 0.00 | 51 | 1008.9 |
| 20260505011510 | 62 | 155 | 1.7 | 5.2 | 0.00 | 0.12 | 0.00 | 50 | 1009.0 |
| 20260505010008 | 63 | 173 | 2.6 | 7.0 | 0.00 | 0.12 | 0.00 | 51 | 1008.9 |
| 20260505004608 | 63 | 167 | 2.6 | 4.3 | 0.00 | 0.12 | 0.00 | 50 | 1008.9 |
| 20260505003050 | 63 | 182 | 3.5 | 6.1 | 0.00 | 0.12 | 0.00 | 48 | 1008.7 |
| 20260505001549 | 64 | 194 | 0.0 | 2.6 | 0.00 | 0.12 | 0.00 | 47 | 1008.9 |
| 20260505000033 | 65 | 205 | 1.7 | 5.2 | 0.00 | 0.12 | 0.00 | 46 | 1008.7 |
| 20260504234530 | 65 | 199 | 2.6 | 6.1 | 0.00 | 0.12 | 0.00 | 44 | 1008.7 |
| 20260504233013 | 66 | 221 | 2.6 | 7.8 | 0.00 | 0.12 | 0.00 | 44 | 1008.7 |
| 20260504231511 | 66 | 232 | 0.0 | 10.4 | 0.00 | 0.12 | 0.00 | 44 | 1008.8 |
| 20260504230053 | 66 | 250 | 5.2 | 8.7 | 0.00 | 0.12 | 0.00 | 44 | 1008.9 |
| 20260504224552 | 67 | 227 | 7.0 | 13.9 | 0.00 | 0.12 | 0.00 | 43 | 1008.9 |
| 20260504223032 | 67 | 200 | 7.8 | 12.2 | 0.00 | 0.12 | 0.00 | 44 | 1009.0 |
| 20260504221529 | 67 | 250 | 4.3 | 12.2 | 0.00 | 0.12 | 0.00 | 47 | 1009.1 |
| 20260504220012 | 67 | 247 | 6.1 | 13.0 | 0.00 | 0.12 | 0.00 | 47 | 1009.2 |
| 20260504214610 | 67 | 228 | 9.6 | 18.2 | 0.00 | 0.12 | 0.00 | 47 | 1009.3 |
| 20260504213056 | 66 | 248 | 9.6 | 18.2 | 0.00 | 0.12 | 0.00 | 47 | 1009.3 |
| 20260504211554 | 66 | 256 | 13.9 | 19.1 | 0.00 | 0.12 | 0.00 | 48 | 1009.4 |
| 20260504210031 | 66 | 252 | 10.4 | 19.1 | 0.00 | 0.12 | 0.00 | 48 | 1009.5 |
| 20260504204529 | 65 | 243 | 13.9 | 20.0 | 0.00 | 0.12 | 0.00 | 48 | 1009.7 |
| 20260504203013 | 66 | 252 | 13.0 | 24.3 | 0.00 | 0.12 | 0.00 | 47 | 1009.7 |
| 20260504201508 | 66 | 235 | 13.0 | 22.6 | 0.00 | 0.12 | 0.00 | 48 | 1009.8 |
| 20260504200055 | 66 | 229 | 7.0 | 21.7 | 0.00 | 0.12 | 0.00 | 49 | 1010.1 |
| 20260504194548 | 65 | 257 | 16.5 | 27.8 | 0.00 | 0.12 | 0.00 | 48 | 1010.1 |